Regional Weather Roundup
Issued by NWS Binghamton, NY

Home | Current Version | Previous Version | Text Only | Print | Product List | Glossary On
Versions: 1 2 3 4 5 6 7 8 9 10 11 12 13 14 15 16 17 18 19 20 21 22 23 24 25 26 27 28 29 30 31 32 33 34 35 36 37 38 39 40 41 42 43 44 45 46 47 48 49 50
841
ASUS41 KBGM 260410
RWRBGM

REGIONAL WEATHER ROUNDUP
NATIONAL WEATHER SERVICE BINGHAMTON NY
1200 AM EDT WED APR 26 2017

Note: "fair" indicates few or no clouds below 12,000 feet with no
significant weather and/or obstructions to visibility.

* = Station(s) that does not report precipitation, such as rain,
snow, etc, also no thunder or fog.

NYZ009-015>018-022>025-036-037-044>046-055>057-062-260500
...Central New York...

CITY           SKY/WX    TMP DP  RH WIND       PRES   REMARKS
Binghamton     CLOUDY    49  48  97 E8        29.86F
Dansville      CLOUDY    58  52  80 S3        29.84F
Elmira         LGT RAIN  56  53  90 NE6       29.85F FOG
Seneca Falls   MOCLDY    55  50  82 E8        29.87F
Ithaca         CLOUDY    53  49  86 E7        29.88F
Hamilton       CLOUDY    50  46  87 SE5       29.91F
Monticello     CLOUDY    48  48 100 E14G21    29.91F
Norwich        CLOUDY    52  46  82 CALM      29.91F
Penn Yan       CLOUDY    56  47  71 E5        29.86F
Rome           LGT RAIN  50  49  96 E10       29.95F
Sidney         CLOUDY    50  50 100 E3        29.89F
Syracuse       DRIZZLE   50  49  96 E14       29.88F FOG
$$

PAZ038>040-043-044-047-048-072-260500
...Northeast Pennsylvania...

CITY           SKY/WX    TMP DP  RH WIND       PRES   REMARKS
Hazleton       CLOUDY    52  50  93 E9G16     29.85S
Scranton       LGT RAIN  54  50  86 NE9       29.84F
$$
&&
KEY
WCI = Wind Chill Index
VSB = Visibility
HX  = Heat Index
$$




USA.gov is the U.S. government's official web portal to all federal, state and local government web resources and services.